SB KEPS @ AMSAT $ORB26094.1 2Line Orbital Elements 26094.AMSAT QST de W1STR AMSAT Orbital Elements for Amateur Satellites in TLE Format From Orbital Analysis Office New England Sci-Tech STEM Education Center Natick MA April 04, 2026 To all radio amateurs These element sets describe the orbits of various satellites in use by the amateur radio community. For details see: www.amsat.org/keplerian-elements-formats/ A daily update of element sets is available at: www.amsat.org/tle/daily-bulletin.txt or without bulletin text: www.amsat.org/tle/dailytle.txt AO-07 1 07530U 74089B 26093.62468330 -.00000043 00000-0 25018-4 0 9993 2 07530 101.9952 106.0831 0011867 273.4318 205.9727 12.53696961351171 UO-11 1 14781U 84021B 26094.18329683 .00003206 00000-0 33299-3 0 9997 2 14781 97.7993 60.6249 0009166 72.6649 287.5571 14.90602466246106 AO-27 1 22825U 93061C 26094.15972690 .00000199 00000-0 92914-4 0 9996 2 22825 98.6932 161.5826 0007593 323.8735 36.1933 14.30922179696411 FO-29 1 24278U 96046B 26094.15339581 .00000018 00000-0 56847-4 0 9997 2 24278 98.5336 313.1239 0348902 288.6176 67.7379 13.53270501463150 GO-32 1 25397U 98043D 26094.23862254 .00000130 00000-0 76157-4 0 9997 2 25397 99.0053 85.1420 0002317 78.4186 281.7252 14.24413470440804 ISS 1 25544U 98067A 26094.06925453 .00011847 00000-0 22464-3 0 9997 2 25544 51.6326 306.8840 0006251 269.7954 90.2318 15.48758130560264 NO-44 1 26931U 01043C 26094.26213189 .00000298 00000-0 14192-3 0 9991 2 26931 67.0497 75.4710 0006828 264.5436 95.4887 14.31926329279867 SO-50 1 27607U 02058C 26094.17794629 .00002448 00000-0 30473-3 0 9991 2 27607 64.5554 357.9396 0075469 275.9713 83.2796 14.82885960253488 CO-55 1 27844U 03031E 26093.50286751 .00000567 00000-0 26456-3 0 9990 2 27844 98.6770 102.9944 0010388 47.9217 312.2844 14.24288225181049 RS-22 1 27939U 03042A 26094.27826098 .00001305 00000-0 20976-3 0 9998 2 27939 98.3454 276.5553 0012104 138.8169 34.0969 14.73328780204664 CO-65 1 32785U 08021C 26094.25070638 .00009772 00000-0 62586-3 0 9993 2 32785 97.8239 74.1938 0007116 283.3320 76.7114 15.08746428974048 CO-66 1 32791U 08021J 26094.23743945 .00032687 00000-0 11161-2 0 9999 2 32791 97.7528 88.7558 0002918 161.1611 198.9737 15.30245025975978 RS-30 1 32953U 08025A 26094.30000257 .00000054 00000-0 31845-3 0 9998 2 32953 82.5054 41.3896 0020393 110.5957 249.7313 12.43177021810516 SRMSAT 1 37841U 11058D 26094.28010965 .00000496 00000-0 12556-3 0 9991 2 37841 19.9707 146.8101 0011924 110.2073 318.6980 14.11557455747360 ZACUBE-1 1 39417U 13066B 26093.87178787 .00009224 00000-0 71955-3 0 9990 2 39417 97.8146 55.8184 0044929 138.2329 222.2338 15.00579357669586 Delfi-N3xt 1 39428U 13066N 26094.26764437 .00015572 00000-0 13751-2 0 9991 2 39428 97.8355 14.7020 0077866 92.4890 268.5247 14.94111946663587 GOMX-1 1 39430U 13066Q 26094.29688122 .00002368 00000-0 36251-3 0 9993 2 39430 97.6537 299.4043 0128153 315.3293 43.7644 14.69201113659067 LO-74 1 39440U 13066AA 26094.29759255 .00007490 00000-0 69927-3 0 9997 2 39440 97.8855 43.0224 0056556 272.6349 86.8397 14.93261828665966 AO-73 1 39444U 13066AE 26094.18528427 .00016448 00000-0 10412-2 0 9991 2 39444 97.8232 64.1714 0039072 95.2943 265.2744 15.08416857668503 DTUSAT-2 1 40030U 14033W 26094.24078972 .00014432 00000-0 79654-3 0 9996 2 40030 98.0870 87.3373 0009645 120.9238 239.2941 15.14026968641497 LILACSAT-2 1 40908U 15049K 26094.29855134 .00029371 00000-0 54162-3 0 9991 2 40908 97.4752 128.4238 0008434 148.8990 211.2761 15.49051323584306 Horyu-4 1 41340U 16012D 26093.77934420 .00172453 00000-0 14462-2 0 9999 2 41340 30.9909 251.8841 0005900 28.3057 331.7917 15.68293238559043 Lapan A3 1 41603U 16040E 26094.29428373 .00006020 00000-0 19335-3 0 9996 2 41603 97.1490 92.8988 0008381 283.1089 76.9218 15.32615953543499 CAS-2T 1 41847U 16066G 26094.19697582 .00001459 00000-0 21385-3 0 9992 2 41847 98.3851 170.7641 0342160 354.2629 5.4685 14.44538820494119 TechnoSat 1 42829U 17042E 26094.03613089 .00006858 00000-0 49210-3 0 9996 2 42829 97.4201 254.5758 0017336 353.3194 6.7798 15.04510511475550 AO-91 1 43017U 17073E 26094.15504960 .00015150 00000-0 67781-3 0 9998 2 43017 97.4813 322.9183 0152857 223.5495 135.3586 15.11425119454201 S-Net D 1 43186U 18014G 26094.22186502 .00010890 00000-0 57012-3 0 9999 2 43186 97.5415 359.4944 0006611 276.6081 83.4399 15.15980361447557 S-Net B 1 43187U 18014H 26094.23188357 .00010335 00000-0 54166-3 0 9992 2 43187 97.5420 359.4886 0007218 270.6274 89.4132 15.15951688447552 S-Net A 1 43188U 18014J 26094.28709624 .00011012 00000-0 57626-3 0 9991 2 43188 97.5430 359.7386 0007126 271.4498 88.5919 15.15988881447566 S-Net C 1 43189U 18014K 26094.23535067 .00010182 00000-0 53370-3 0 9994 2 43189 97.5446 359.7505 0008483 262.4820 97.5449 15.15944408446107 Ten-Koh 1 43677U 18084G 26094.08143673 .00005539 00000-0 42041-3 0 9997 2 43677 98.0757 283.3294 0009779 9.8075 350.3338 15.02607611405033 PO-101 1 43678U 18084H 26094.27088655 .00003440 00000-0 28063-3 0 9994 2 43678 98.1033 287.3592 0013922 51.9618 308.2859 15.00100365405136 QO-100 1 43700U 18090A 26094.19419966 .00000143 00000-0 00000-0 0 9996 2 43700 0.0194 220.7704 0001207 158.3279 269.1593 1.00269150 26936 MinXSS-2 1 43758U 18099A 26094.16749418 .00061881 00000-0 14304-2 0 9993 2 43758 97.4581 168.5440 0008922 167.5526 192.5943 15.42247797402708 AO-95 1 43770U 18099N 26094.10637231 .00023564 00000-0 94062-3 0 9996 2 43770 97.4457 154.6911 0007700 242.7013 117.3441 15.25133637401922 SNUSat 2 1 43782U 18099AA 26094.13667612 .00016483 00000-0 75087-3 0 9996 2 43782 97.4138 148.6922 0010381 186.4338 173.6766 15.20700158401770 SnugLite 1 43784U 18099AC 26094.12898069 .00022996 00000-0 90657-3 0 9995 2 43784 97.3948 149.1988 0003394 161.8238 198.3123 15.25576382402025 ITASat 1 1 43786U 18099AE 26094.08910567 .00014687 00000-0 72123-3 0 9996 2 43786 97.4110 147.1018 0011392 247.5141 112.4887 15.18114268401669 EAGLET 1 1 43790U 18099AJ 26094.09578954 .00009175 00000-0 53164-3 0 9992 2 43790 97.4311 145.7271 0010015 237.1193 122.9075 15.12375662401133 ESEO 1 43792U 18099AL 26094.07085280 .00003538 00000-0 25990-3 0 9990 2 43792 97.4038 134.6125 0011222 222.0678 137.9688 15.04012936400664 JO-97 1 43803U 18099AX 26094.11459963 .00034098 00000-0 11247-2 0 9995 2 43803 97.4202 156.8006 0006661 162.1825 197.9651 15.31338197402289 Suomi 100 1 43804U 18099AY 26093.72579654 .00021910 00000-0 83291-3 0 9990 2 43804 97.4262 154.4649 0010669 175.3093 184.8248 15.26750802402056 ISAT 1 43879U 18111D 26094.24337373 .00104627 00000-0 15604-2 0 9994 2 43879 97.5908 24.4514 0005626 167.9647 192.1742 15.54697971399641 UWE-4 1 43880U 18111E 26094.26197585 .00053849 00000-0 12646-2 0 9999 2 43880 97.5859 19.5117 0006722 214.8535 145.2272 15.41827832399372 Sparrow 1 43881U 18111F 26093.74345908 .00124603 00000-0 15719-2 0 9997 2 43881 97.6123 28.5427 0002518 161.9722 198.1623 15.59162679399727 Prox-1 1 44339U 19036A 26093.70666417 .00023308 00000-0 23938-2 0 9992 2 44339 23.9951 251.0793 0005695 254.6209 105.3661 14.88841533362350 Taurus 1 1 44530U 19059C 26094.26987395 .00011222 00000-0 18237-2 0 9991 2 44530 98.6345 254.5851 0009401 177.8790 182.2457 14.71258259347777 TO-108 1 44881U 19093C 26094.26702002 .00001162 00000-0 13761-3 0 9998 2 44881 97.7573 168.2947 0012977 336.1750 23.8863 14.86398407340437 RS-44 1 44909U 19096E 26094.28072370 .00000021 00000-0 45188-4 0 9994 2 44909 82.5255 28.8105 0216814 317.4452 41.0020 12.79747790292897 SALSAT 1 46495U 20068K 26093.94381268 .00015678 00000-0 56347-3 0 9990 2 46495 97.8863 92.5537 0009437 192.6370 167.4633 15.28700775304013 CSS (TIANHE-1) 1 48274U 21035A 26094.17363873 .00032464 00000-0 36374-3 0 9990 2 48274 41.4678 52.9483 0003770 120.6138 239.5073 15.61988078281593 CUTE 1 49263U 21088D 26094.19706532 .00108828 00000-0 86412-3 0 9998 2 49263 97.4202 187.8916 0003807 220.1171 139.9810 15.70918139250879 TeikyoSat 4 1 49396U 21102B 26094.06951372 .00003446 00000-0 22002-3 0 9997 2 49396 97.3748 126.4194 0012041 180.0280 180.0951 15.09245362241542 Z-Sat 1 49399U 21102E 26094.23658931 .00007564 00000-0 37692-3 0 9990 2 49399 97.3409 131.8038 0017899 141.3311 218.9208 15.17696610242224 KOSEN 1 1 49402U 21102H 26094.05936147 .00016148 00000-0 63150-3 0 9999 2 49402 97.3276 137.6799 0015694 108.6718 251.6226 15.25808878242715 HO-113 1 50466U 21131B 26094.26013400 .00000994 00000-0 32107-3 0 9994 2 50466 98.4952 187.0671 0003348 336.1467 23.9567 14.41285886224465 SNUGLITE 2 1 52899U 22065F 26094.16211876 .00001959 00000-0 38128-3 0 9990 2 52899 98.2082 239.1747 0006298 252.5610 107.4904 14.64203669200168 UmKA 1 (RS40S) 1 57172U 23091G 26094.25003423 .00012653 00000-0 58878-3 0 9993 2 57172 97.5119 153.2505 0013350 24.6398 335.5471 15.19999342152773 CubeBel-2 (EU11S) 1 57175U 23091K 26094.26234567 .00024388 00000-0 90720-3 0 9992 2 57175 97.5115 156.8928 0010310 25.3093 334.8649 15.27452638153011 RS-38S 1 57189U 23091Z 26094.21623276 .00031161 00000-0 95342-3 0 9993 2 57189 97.5144 162.3329 0006583 344.2389 15.8647 15.33765055153340 SONATE-2 1 59112U 24043Q 26093.92770309 .00066855 00000-0 10453-2 0 9993 2 59112 97.5445 240.1168 0007706 115.7700 244.4348 15.53524313116343 GRBBeta 1 60237U 24128C 26094.27098939 .00006865 00000-0 46958-3 0 9993 2 60237 61.9882 115.4834 0049050 119.1000 241.5017 15.06060339 95131 Curium One 1 60242U 24128H 26094.22944706 .00013843 00000-0 80517-3 0 9999 2 60242 61.9770 107.4822 0048477 115.4167 245.1957 15.11354676 95270 ROBUSTA-3A 1 60243U 24128J 26094.28635189 .00011354 00000-0 67704-3 0 9996 2 60243 61.9846 109.3530 0049505 112.8863 247.7469 15.10564648 95254 CatSat 1 60246U 24125J 26094.12499384 .00085639 00000-0 14217-2 0 9991 2 60246 97.2168 306.0565 0026954 97.6936 262.7379 15.51395613 95889 HYPERVIEW-1G (RS66S) 1 61772U 24199AP 26094.22507442 .00116388 00000-0 13179-2 0 9995 2 61772 97.3021 331.0245 0008249 171.8336 188.3058 15.61992726123082 AO-123 1 61781U 24199AY 26094.24669723 .00015294 00000-0 45702-3 0 9990 2 61781 97.3105 323.5976 0013294 207.6270 152.4268 15.34592296122580 JINJUSat 1B 1 63210U 25052A 26094.15891864 .00030511 00000-0 10106-2 0 9999 2 63210 97.4083 350.9130 0003508 25.1126 335.0286 15.31241683 58766 NUSHSAT 1 1 63211U 25052B 26094.24277050 .00038117 00000-0 11869-2 0 9992 2 63211 97.4065 351.3395 0003583 29.0558 331.0883 15.33176273 58808 TEVEL2-4 1 63213U 25052D 26094.24181789 .00035280 00000-0 11372-2 0 9994 2 63213 97.3986 350.6242 0003570 47.9687 312.1858 15.32084733 58789 TEVEL2-5 1 63214U 25052E 26094.18958867 .00035027 00000-0 11341-2 0 9992 2 63214 97.3985 350.5387 0003575 48.4718 311.6830 15.31944758 58778 TEVEL2-6 1 63215U 25052F 26093.15493678 .00033764 00000-0 10973-2 0 9999 2 63215 97.3990 349.4910 0003776 49.6169 310.5402 15.31832415 58612 TEVEL2-1 1 63217U 25052H 26093.68283306 .00031726 00000-0 10448-2 0 9997 2 63217 97.3960 349.7254 0004238 56.9591 303.2057 15.31416357 58684 TEVEL2-3 1 63218U 25052J 26094.20250110 .00033317 00000-0 10942-2 0 9991 2 63218 97.3960 350.2573 0004166 56.4803 303.6836 15.31493534 58767 TEVEL2-2 1 63219U 25052K 26094.14082454 .00035474 00000-0 11660-2 0 9993 2 63219 97.3961 350.1827 0004152 56.8786 303.2854 15.31454378 58757 TEVEL2-9 1 63237U 25052AD 26094.22372042 .00030644 00000-0 10645-2 0 9993 2 63237 97.4028 349.7885 0007963 55.6709 304.5284 15.29669871 58715 TEVEL2-7 1 63238U 25052AE 26094.25181011 .00031843 00000-0 11140-2 0 9994 2 63238 97.4015 349.7609 0007965 56.0671 304.1325 15.29432762 58710 TEVEL2-8 1 63239U 25052AF 26094.25918907 .00030895 00000-0 10818-2 0 9994 2 63239 97.4023 349.7483 0008024 56.9974 303.2036 15.29410247 58715 HYDRA-W 1 63490U 25052BL 26094.26921645 .00727277 00000-0 37466-2 0 9992 2 63490 97.3846 356.8471 0005684 102.2297 257.9607 15.79241667 59201 HADES-ICM (SO-125) 1 63492U 25052BN 26094.14646184 .00373306 00000-0 34399-2 0 9995 2 63492 97.3885 355.6735 0006436 76.5189 283.6788 15.66453121 59117 SPIRONE 1 66657U 25274H 26093.74733158 .00005617 00000-0 54190-3 0 9999 2 66657 97.7460 24.1335 0010489 261.1349 98.8683 14.93234761 19115 K-HERO 1 66660U 25274L 26093.77322355 .00004083 00000-0 39092-3 0 9999 2 66660 97.7469 24.2642 0012367 266.7804 93.2001 14.93679884 19127 SNUGLITE-III DURI 1 66661U 25274M 26094.23268253 .00004267 00000-0 40749-3 0 9993 2 66661 97.7468 24.7340 0012904 266.0012 93.9733 14.93755721 19199 SilverSat 1 66909U 98067XV 26093.77994827 .00579654 00000-0 20456-2 0 9998 2 66909 51.6183 295.1303 0008837 251.8453 108.1590 15.87036354 19155 SAKHACUBE-CHOLBON 1 67290U 25313AU 26094.17201967 .00020373 00000-0 85354-3 0 9995 2 67290 97.3965 170.1982 0008235 252.0521 107.9818 15.23530811 14703 RS95S (QMR-KWT-2) 1 67291U 25313AV 26094.14834379 .00029846 00000-0 12171-2 0 9992 2 67291 97.3966 170.2285 0008051 250.2157 109.8212 15.24364955 14707 Ten-Koh2 1 68261U 25241B 26093.95348627 .00014968 00000-0 64232-3 0 9999 2 68261 51.6395 312.7507 0004616 250.3397 109.7082 15.22898697 3596 IO-86 1 40931U 25360.30710720 .00000000 00000-0 12800-3 0 00 2 40931 6.0006 332.5373 0012733 338.8432 8.1437 14.79075515 01 HADES-SA/SpinnyONE 1 71958C 26067D 26089.49758863 -.00009989 00000+0 -51655-3 0 00 2 71958 97.4320 49.1630 0007687 13.6276 327.6456 15.16316797 13 LILIUM-4 1 71922C 26067AC 26089.50133053 -.00014632 00000+0 -74472-3 0 04 2 71922 97.4497 49.1617 0004341 5.9603 355.7042 15.16896692 16 PARUS-6U1 1 71919C 26067Q 26089.49893470 -.00013781 00000+0 -70600-3 0 07 2 71919 97.4488 49.1589 0005235 359.3198 349.2677 15.16662579 15 JACK-002 1 71927C 26067C 26089.49750414 -.00013014 00000+0 -63498-3 0 02 2 71927 97.4500 49.1567 0002681 143.8886 196.8842 15.18377566 18 SAL-E 1 71904C 26067L 26089.49846595 -.00007742 00000+0 -39877-3 0 08 2 71904 97.4412 49.1602 0006442 8.2554 337.7892 15.16462720 16 DISCO-2 1 71908C 26067U 26089.49955160 -.00011726 00000+0 -58129-3 0 09 2 71908 97.4541 49.1588 0000289 282.0588 69.8834 15.17826845 10 /EX